Regional Weather Roundup
Issued by NWS Kansas City/Pleasant Hill, MO

Home | Current Version | Previous Version | Text Only | Print | Product List | Glossary On
Versions: 1 2 3 4 5 6 7 8 9 10 11 12 13 14 15 16 17 18 19 20 21 22 23 24 25 26 27 28 29 30 31 32 33 34 35 36 37 38 39 40 41 42 43 44 45 46 47 48 49 50
000
ASUS43 KEAX 301110
RWREAX

WEATHER ROUNDUP FOR EASTERN KANSAS AND NORTHWEST MISSOURI
NATIONAL WEATHER SERVICE KANSAS CITY/PLEASANT HILL MO
600 AM CDT WED JUL 30 2014

KSZ040-057-103>105-MOZ028-029-037-043-301200-
...KANSAS CITY METROPOLITAN AREA...

CITY           SKY/WX    TMP DP  RH WIND       PRES   REMARKS
K.C. INTL      CLOUDY    63  59  87 NE7       30.11R
K.C. DOWNTOWN  CLOUDY    68  59  73 N3        30.09S
LEES SUMMIT    CLOUDY    65  61  87 N3        30.11R
OLATHE - IXD   CLOUDY    68  61  78 N3        30.10S
OLATHE - OJC   CLOUDY    69  60  73 CALM      30.09S
LAWRENCE       CLOUDY    68  61  78 N3        30.10R

$$

MOZ001>008-011>017-020>025-030>033-038>040-044>046-053-054-301200-
...NORTHERN AND CENTRAL MISSOURI...

CITY           SKY/WX    TMP DP  RH WIND       PRES   REMARKS
ST. JOSEPH     MOCLDY    60  59  96 N5        30.11S
MOSBY          CLOUDY    61  59  94 CALM      30.10S
WHITEMAN AFB   CLOUDY    60  50  70 SW1       30.09R
CLINTON        CLOUDY    64  63  94 CALM      30.09S
SEDALIA        PTCLDY    61  57  87 CALM      30.10R
WARSAW         NOT AVBL
MARSHALL       MOCLDY    63  63 100 CALM      30.10R
CHILLICOTHE      N/A     57  55  93 CALM      30.12R
KIRKSVILLE     PTCLDY    55  54  96 NW3       30.10R

$$

MOZ041-047>049-056>058-063>065-088>090-097-301200-
...EASTERN AND SOUTHERN MISSOURI...

CITY           SKY/WX    TMP DP  RH WIND       PRES   REMARKS
ST. LOUIS INTL PTCLDY    65  57  75 CALM      30.09R
SPIRIT OF STL  PTCLDY    59  57  93 CALM      30.07R
COLUMBIA       MOCLDY    62  56  80 CALM      30.09R
JEFFERSON CITY MOCLDY    60  57  89 CALM      30.08R
MEXICO         PTCLDY   N/A N/A N/A CALM      30.09R
HANNIBAL       CLEAR     61  57  88 W5        30.09S
ROLLA          PTCLDY    61  56  83 S5        30.08R
LEBANON        MOCLDY    63  55  77 CALM      30.11R
OSAGE BEACH    PTCLDY    57  55  94 CALM      30.09R
SPRINGFIELD    CLOUDY    68  60  75 CALM      30.09R
BRANSON          N/A     66  63  88 CALM      30.10S
NEVADA         MOCLDY    66  63  88 NE3       30.10S
JOPLIN         CLOUDY    67  65  93 VRB6      30.09S
WEST PLAINS    PTCLDY    60  56  86 CALM      30.11S
MALDEN         CLEAR     61  57  88 CALM      30.10S

$$

IAZ060-094-KSZ022-034>040-054-083-096-NEZ052-066-093-301200-
...KANSAS...SOUTHEAST NEBRASKA AND IOWA...

CITY           SKY/WX    TMP DP  RH WIND       PRES   REMARKS
TOPEKA         CLOUDY    68  62  81 N3        30.10S
MANHATTAN      LGT RAIN  66  64  93 CALM      30.11S
EMPORIA        CLOUDY    67  62  84 NE7       30.09S
CHANUTE        CLOUDY    68  63  84 N5        30.08R
WICHITA        CLOUDY    70  61  73 E3        30.06S
OMAHA          PTCLDY    55  53  93 NW5       30.14R
LINCOLN        PTCLDY    56  52  86 N5        30.16R
FALLS CITY     MOCLDY    58  56  93 N3        30.12S
LAMONI         PTCLDY    56  52  86 NW3       30.11R
DES MOINES     PTCLDY    59  54  83 NW3       30.10R

$$



USA.gov is the U.S. government's official web portal to all federal, state and local government web resources and services.